Temperatur und Luftfeuchte: Die letzten 100 Werte

Nummer Datum Zeit Sensor Temp Celsius Gef├╝hlte Temp Luftfeuchte in %
6951 2019-04-21 05:11:06 ESP12E-S1 16.00 14.56 34.80
6950 2019-04-21 04:42:47 ESP12E-S1 16.20 14.75 33.60
6949 2019-04-21 04:14:29 ESP12E-S1 16.50 15.07 33.00
6948 2019-04-21 03:46:08 ESP12E-S1 16.80 15.36 31.70
6947 2019-04-21 03:17:48 ESP12E-S1 17.00 15.59 32.10
6946 2019-04-21 02:49:29 ESP12E-S1 17.30 15.93 32.30
6945 2019-04-21 02:21:09 ESP12E-S1 17.50 16.14 32.10
6944 2019-04-21 01:52:50 ESP12E-S1 17.70 16.38 32.60
6943 2019-04-21 01:24:31 ESP12E-S1 18.10 16.79 31.60
6942 2019-04-21 00:56:12 ESP12E-S1 18.30 17.02 32.10
6941 2019-04-21 00:27:53 ESP12E-S1 18.70 17.43 30.80
6940 2019-04-20 23:59:33 ESP12E-S1 18.90 17.63 30.00
6939 2019-04-20 23:31:14 ESP12E-S1 19.20 17.96 30.00
6938 2019-04-20 23:02:56 ESP12E-S1 19.60 18.39 29.60
6937 2019-04-20 22:34:37 ESP12E-S1 20.00 18.84 29.90
6936 2019-04-20 22:06:19 ESP12E-S1 20.50 19.38 29.50
6935 2019-04-20 21:38:02 ESP12E-S1 21.00 19.90 28.40
6934 2019-04-20 21:09:46 ESP12E-S1 21.50 20.45 28.50
6933 2019-04-20 20:41:35 ESP12E-S1 22.70 21.73 27.00
6932 2019-04-20 20:13:42 ESP12E-S1 28.20 27.00 24.00
6931 2019-04-20 19:45:36 ESP12E-S1 30.70 28.92 22.30
6930 2019-04-20 19:17:22 ESP12E-S1 31.30 29.42 21.70
6929 2019-04-20 18:48:55 ESP12E-S1 30.50 28.71 21.60
6928 2019-04-20 18:20:44 ESP12E-S1 30.50 28.70 21.30
6927 2019-04-20 17:52:24 ESP12E-S1 30.90 29.04 21.20
6926 2019-04-20 17:24:04 ESP12E-S1 31.10 29.22 21.20
6925 2019-04-20 16:55:42 ESP12E-S1 31.10 29.19 20.50
6924 2019-04-20 16:27:21 ESP12E-S1 31.30 29.38 20.90
6923 2019-04-20 15:58:59 ESP12E-S1 30.80 28.93 20.70
6922 2019-04-20 15:30:38 ESP12E-S1 31.30 29.45 22.20
6921 2019-04-20 15:02:16 ESP12E-S1 31.30 29.51 23.20
6920 2019-04-20 14:33:50 ESP12E-S1 30.50 28.80 23.50
6919 2019-04-20 14:05:29 ESP12E-S1 30.10 28.49 24.30
6918 2019-04-20 13:37:25 ESP12E-S1 30.40 28.74 24.00
6917 2019-04-20 13:08:55 ESP12E-S1 31.40 29.87 26.90
6916 2019-04-20 12:39:53 ESP12E-S1 26.40 26.43 39.40
6915 2019-04-20 12:11:30 ESP12E-S1 25.30 24.79 34.50
6914 2019-04-20 11:43:05 ESP12E-S1 24.00 23.41 36.70
6913 2019-04-20 11:14:38 ESP12E-S1 22.70 21.80 29.80
6912 2019-04-20 10:46:09 ESP12E-S1 21.40 20.36 29.30
6911 2019-04-20 10:17:41 ESP12E-S1 20.10 19.00 31.90
6910 2019-04-20 09:49:13 ESP12E-S1 18.80 17.61 33.50
6909 2019-04-20 09:20:45 ESP12E-S1 17.70 16.40 33.40
6908 2019-04-20 08:52:18 ESP12E-S1 16.70 15.33 34.60
6907 2019-04-20 08:23:50 ESP12E-S1 15.60 14.14 35.30
6906 2019-04-20 07:55:26 ESP12E-S1 14.90 13.38 35.70
6905 2019-04-20 07:27:05 ESP12E-S1 14.60 13.05 35.80
6904 2019-04-20 06:58:43 ESP12E-S1 14.40 12.82 35.30
6903 2019-04-20 06:30:23 ESP12E-S1 14.40 12.83 35.90
6902 2019-04-20 06:02:05 ESP12E-S1 14.60 13.06 36.30
6901 2019-04-20 05:33:46 ESP12E-S1 14.80 13.25 35.20
6900 2019-04-20 05:05:27 ESP12E-S1 15.10 13.58 34.90
6899 2019-04-20 04:37:08 ESP12E-S1 15.30 13.78 34.30
6898 2019-04-20 04:08:49 ESP12E-S1 15.50 14.00 34.20
6897 2019-04-20 03:40:28 ESP12E-S1 15.60 14.11 34.20
6896 2019-04-20 03:12:09 ESP12E-S1 15.80 14.34 34.80
6895 2019-04-20 02:43:50 ESP12E-S1 15.90 14.44 34.40
6894 2019-04-20 02:15:31 ESP12E-S1 16.00 14.55 34.40
6893 2019-04-20 01:47:13 ESP12E-S1 16.20 14.79 35.10
6892 2019-04-20 01:18:53 ESP12E-S1 16.30 14.91 35.40
6891 2019-04-20 00:50:33 ESP12E-S1 16.50 15.13 35.60
6890 2019-04-20 00:22:14 ESP12E-S1 16.50 15.15 36.00
6889 2019-04-19 23:53:55 ESP12E-S1 16.70 15.36 35.80
6888 2019-04-19 23:25:37 ESP12E-S1 16.70 15.38 36.50
6887 2019-04-19 22:57:19 ESP12E-S1 17.30 16.02 35.90
6886 2019-04-19 22:29:03 ESP12E-S1 17.70 16.41 33.80
6885 2019-04-19 22:00:46 ESP12E-S1 18.20 16.92 32.40
6884 2019-04-19 21:32:30 ESP12E-S1 18.80 17.54 30.80
6883 2019-04-19 21:04:14 ESP12E-S1 19.70 18.54 31.10
6882 2019-04-19 20:36:00 ESP12E-S1 20.90 19.82 29.70
6881 2019-04-19 20:07:48 ESP12E-S1 22.20 21.17 26.60
6880 2019-04-19 19:39:34 ESP12E-S1 23.60 22.70 26.20
6879 2019-04-19 19:11:19 ESP12E-S1 24.70 23.87 24.80
6878 2019-04-19 18:43:07 ESP12E-S1 25.80 25.06 24.00
6877 2019-04-19 18:15:04 ESP12E-S1 27.20 26.28 22.40
6876 2019-04-19 17:46:44 ESP12E-S1 28.00 26.77 21.20
6875 2019-04-19 17:19:23 ESP12E-S1 31.00 29.54 27.80
6874 2019-04-19 17:19:07 ESP12E-S1 31.20 29.69 27.10
6873 2019-04-19 17:06:08 ESP12E-S1 33.10 31.09 20.70
6872 2019-04-19 16:37:25 ESP12E-S1 30.90 29.09 22.30
6871 2019-04-19 16:09:13 ESP12E-S1 32.70 30.79 22.10
6870 2019-04-19 15:40:28 ESP12E-S1 31.20 29.48 24.20
6869 2019-04-19 15:12:39 ESP12E-S1 32.00 30.05 21.30
6868 2019-04-19 14:44:10 ESP12E-S1 31.70 29.90 23.40
6867 2019-04-19 14:15:26 ESP12E-S1 30.40 28.84 25.80
6866 2019-04-19 13:47:25 ESP12E-S1 30.00 28.45 25.20
6865 2019-04-19 13:18:59 ESP12E-S1 30.30 28.71 25.10
6864 2019-04-19 12:50:04 ESP12E-S1 27.40 26.65 29.40
6863 2019-04-19 12:21:32 ESP12E-S1 24.00 23.29 31.90
6862 2019-04-19 11:53:12 ESP12E-S1 23.30 22.51 31.70
6861 2019-04-19 11:24:36 ESP12E-S1 21.90 21.05 34.70
6860 2019-04-19 10:56:02 ESP12E-S1 20.10 19.17 38.50
6859 2019-04-19 10:27:30 ESP12E-S1 18.00 16.88 39.20
6858 2019-04-19 09:59:01 ESP12E-S1 16.80 15.58 39.90
6857 2019-04-19 09:30:37 ESP12E-S1 15.90 14.61 40.80
6856 2019-04-19 09:02:16 ESP12E-S1 15.10 13.73 40.60
6855 2019-04-19 08:33:49 ESP12E-S1 14.00 12.54 41.70
6854 2019-04-19 08:05:24 ESP12E-S1 13.20 11.69 42.60
6853 2019-04-19 07:37:02 ESP12E-S1 12.90 11.37 43.00
6852 2019-04-19 07:08:42 ESP12E-S1 12.80 11.24 42.20